Weather History for Campo, CA

Change the Weather History Date:

Tuesday, May 28, 2013

  Actual Average Record
Temperature  
Mean Temperature 57 °F 62 °F  
Max Temperature 74 °F 82 °F 102 °F (2003)
Min Temperature 40 °F 43 °F 30 °F (1959)
Degree Days  
Heating Degree Days 8 4  
Month to date heating degree days 170 147  
Since 1 July heating degree days 2976 2915  
Cooling Degree Days 0 1  
Month to date cooling degree days 24 23  
Year to date cooling degree days 25 26  
Growing Degree Days 7 (Base 50)    
Moisture  
Dew Point 46 °F    
Average Humidity 64    
Maximum Humidity 89    
Minimum Humidity 38    
Precipitation  
Precipitation 0.00 in 0.00 in 0.21 in (1990)
Month to date precipitation 0.33 0.17  
Year to date precipitation 4.78 10.03  
Since 1 July precipitation 9.25 15.61  
Snow  
Snow 0.00 in - - ()
Month to date snowfall 0.0  
Year to date snowfall 0.0  
Since 1 July snowfall 0.0  
Snow Depth 0.00 in    
Sea Level Pressure  
Sea Level Pressure 29.75 in    
Wind  
Wind Speed 10 mph (SW)    
Max Wind Speed 23 mph    
Max Gust Speed 30 mph    
T = Trace of Precipitation, MM = Missing Value Source: NWS Daily Summary

Daily Weather History Graph

Daily Weather History Graph

Search for Another Location

Airport:

Trip Planner

Search our weather history database for the weather conditions in past years. The results will help you decide how hot, cold, wet, or windy it might be!

Date:

Astronomy

May. 28, 2013 Rise Set
Actual Time 5:40 AM PDT 7:46 PM PDT
Civil Twilight 5:12 AM PDT 8:14 PM PDT
Nautical Twilight 4:38 AM PDT 8:48 PM PDT
Astronomical Twilight 4:01 AM PDT 9:25 PM PDT
Moon 11:20 PM PDT (5/28) 9:28 AM PDT (5/28)
Length of Visible Light 15h 02m
Length of Day
14h 06m
Waning Gibbous, 82% of the Moon is Illuminated
May 28
Waning Gibbous
May 31
Last Quarter
Jun 8
New
Jun 16
First Quarter
Jun 23
Full

Hourly Weather History & Observations

Time (PDT) Temp. Windchill Dew Point Humidity Pressure Visibility Wind Dir Wind Speed Gust Speed Precip Events Conditions
12:52 AM 44.1 °F 42.5 °F 39.9 °F 85% 29.81 in - NE 3.5 mph - N/A   Unknown
1:52 AM 46.0 °F - 42.1 °F 86% 29.80 in - Calm Calm - N/A   Unknown
2:52 AM 44.1 °F 42.5 °F 39.9 °F 85% 29.78 in - ENE 3.5 mph - N/A   Unknown
3:52 AM 41.0 °F - 37.0 °F 86% 29.78 in - Calm Calm - N/A   Unknown
4:52 AM 43.0 °F - 39.0 °F 86% 29.79 in - Calm Calm - N/A   Unknown
5:52 AM 43.0 °F - 37.9 °F 82% 29.77 in - Calm Calm - N/A   Unknown
6:52 AM 46.9 °F - 42.1 °F 83% 29.77 in - Calm Calm - N/A   Unknown
7:52 AM 59.0 °F - 46.0 °F 62% 29.75 in - SW 11.5 mph - N/A   Unknown
8:52 AM 61.0 °F - 44.1 °F 54% 29.75 in - WSW 15.0 mph 21.9 mph N/A   Unknown
9:52 AM 61.0 °F - 48.0 °F 62% 29.75 in - SW 20.7 mph 25.3 mph N/A   Unknown
10:52 AM 68.0 °F - 46.9 °F 47% 29.75 in - SW 15.0 mph 23.0 mph N/A   Unknown
11:52 AM 70.0 °F - 48.0 °F 46% 29.77 in - WSW 12.7 mph 18.4 mph N/A   Unknown
12:52 PM 72.0 °F - 46.0 °F 40% 29.75 in - WSW 15.0 mph 23.0 mph N/A   Unknown
1:52 PM 73.9 °F - 46.9 °F 38% 29.73 in - SW 17.3 mph 28.8 mph N/A   Unknown
2:52 PM 73.0 °F - 48.9 °F 42% 29.72 in - SW 18.4 mph 29.9 mph N/A   Unknown
3:52 PM 73.0 °F - 50.0 °F 44% 29.73 in - SW 13.8 mph 26.5 mph N/A   Unknown
4:52 PM 70.0 °F - 51.1 °F 51% 29.72 in - SW 18.4 mph 25.3 mph N/A   Unknown
5:52 PM 66.9 °F - 51.1 °F 57% 29.72 in - SW 18.4 mph 24.2 mph N/A   Unknown
6:52 PM 63.0 °F - 52.0 °F 67% 29.73 in - SSW 10.4 mph - N/A   Unknown
7:52 PM 61.0 °F - 52.0 °F 72% 29.72 in - WSW 10.4 mph - N/A   Unknown
8:52 PM 57.0 °F - 52.0 °F 83% 29.73 in - SW 10.4 mph - N/A   Unknown
9:52 PM 55.0 °F - 51.1 °F 86% 29.75 in - SSW 6.9 mph - N/A   Unknown
10:52 PM 55.0 °F - 51.1 °F 86% 29.74 in - WSW 5.8 mph - N/A   Unknown
11:52 PM 53.1 °F - 50.0 °F 89% 29.72 in - SSW 5.8 mph - N/A   Unknown